Weather in Kosteryovo

Russia / Vladimir Oblast     55°56′01″N   39°37′29″E
temp.,
°C
wind,
m/s
gust,
m/s
humid.,
%
clouds,
%
prec.,
mm/h
press.,
hPa
HPBL,
m
26 february, fri
fri2600:00+1w2798100 0.0 1012264
03:00+1sw2599100 0.1 1011156
06:00+1sw3799100 1.3 1008185
09:00+2wsw41299100 3.6 1005512
12:00+3wsw413100100 0.2 1002431
15:00+3w61599100 1.0 1000659
18:00+2w6148698 0.3 999963
21:00+1w6148996 0.3 9991069
27 february, sat
sat2700:00+1wnw61396100 0.1 998916
03:00+1wnw51397100 0.7 999851
06:00−6nnw71289100 1.3 1000876
09:00−10nnw51186100 1.3 1003651
12:00−9nnw4985100 0.0 1006572
15:00−7nnw4886100 0.0 1009610
18:00−9nnw2893100 0.0 1010346
21:00−11n289495 0.0 1013320
28 february, sun
sun2800:00−13nnw249630 0.0 1013113
03:00−14nnw239515 0.0 101581
06:00−12nnw159653 0.1 1015216
09:00−10nnw139375 0.3 1016261
12:00−6nnw248891 0.1 1016457
15:00−4nnw258895 0.1 1017576
18:00−5n1296100 0.1 101837
21:00−8ene129799 0.2 102021
1 march, mon
mon100:00−10ene119795 0.1 102121
03:00−9ssw119796 0.1 102321
06:00−9w1297100 0.1 102421
09:00−8wnw129596 0.1 102587
12:00−4wsw249087 0.0 1024467
15:00−2w478992 0.1 1023665
18:00−2wsw41094100 0.1 1020591
21:000w41296100 0.1 1018627
2 march, tue
tue200:00+1wnw51294100 0.3 1016678
03:00+1wnw51295100 0.3 1014664
06:00+1wnw51196100 0.1 1013672
09:00+1nw41098100 0.2 1013683
12:00+1nw51188100 0.1 10131117
15:00+1nw6128699 0.2 10131088
18:000nw4128692 0.1 1013943
21:000nw4128695 0.1 1013938